Regional Weather Roundup
Issued by NWS

Home | Current Version | Previous Version | Graphics & Text | Print | Product List | Glossary On
Versions: 1 2 3 4 5 6 7 8 9 10 11 12 13 14 15 16 17 18 19 20 21 22 23 24 25 26 27 28
000
ASUS45 KBOU 301307
RWRCO

WEATHER ROUNDUP FOR COLORADO
NATIONAL WEATHER SERVICE DENVER/BOULDER CO
700 AM MDT MON MAY 30 2016

NOTE: "FAIR" INDICATES FEW OR NO CLOUDS BELOW 12000 FEET WITH NO
SIGNIFICANT WEATHER AND/OR OBSTRUCTIONS TO VISIBILITY.

COZ001>005-013-030-031-301400-
...NORTHWEST COLORADO...

CITY           SKY/WX    TMP DP  RH WIND       PRES   REMARKS
CRAIG          FAIR      42  38  85 CALM      30.18R
HAYDEN         FAIR      43  34  70 SW3       30.18R
MEEKER         FAIR      42  36  79 E5        30.18R
MOUNT WERNER   NOT AVBL
STEAMBOAT SPGS FAIR      40  35  81 CALM      30.18R
WALDEN         NOT AVBL
$$

COZ006>008-011-301400-
...WEST CENTRAL VALLEYS...

CITY           SKY/WX    TMP DP  RH WIND       PRES   REMARKS
GRAND JUNCTION FAIR      54  39  57 S7        30.06S
MONTROSE       FAIR      47  31  53 SE7       30.13S
EAGLE          NOT AVBL
RIFLE          FAIR      44  36  73 E3        30.13R
DELTA          FAIR      51  35  52 N3        30.11R
NUCLA          FAIR      50  30  46 E7        30.16R
$$

COZ017>023-064>068-301400-
...SOUTHWEST COLORADO...

CITY           SKY/WX    TMP DP  RH WIND       PRES   REMARKS
DURANGO        FAIR      42  28  57 CALM      30.17R
CORTEZ         FAIR      44  28  53 E5        30.13R
PAGOSA SPRINGS FAIR      43  28  56 CALM      30.24R
TELLURIDE      FAIR      44  25  48 SE7       30.30S
WOLF CREEK PAS FAIR      37  19  48 SW14      30.47R
$$

COZ009-010-012-014-032>034-037-058>063-301400-
...CENTRAL COLORADO...

CITY           SKY/WX    TMP DP  RH WIND       PRES   REMARKS
ASPEN          FAIR      41  31  67 CALM      30.20F
BUENA VISTA    FAIR      41  29  62 E5        30.26R
COPPER MTN     NOT AVBL
BERTHOUD PASS  FAIR      34  25  69 W10G20    30.43R WCI  26
COTTONWOOD PAS FAIR      46  19  34 W6        30.33R
GUNNISON       FAIR      36  28  75 CALM      30.29S
KREMMLING      FAIR      36  32  87 CALM      30.25R
LEADVILLE      FAIR      35  25  66 NE3       30.32S
MONARCH PASS   FAIR      37  21  52 SW14      30.53S
SALIDA         FAIR      44  31  61 CALM      30.32S
SUNLIGHT       FAIR      41  28  60 CALM      30.37S
WILKERSON PASS FAIR      37  27  65 SW6       30.41R
$$

COZ069>075-301400-
...SAN LUIS VALLEY/SANGRE DE CRISTO MOUNTAINS...

CITY           SKY/WX    TMP DP  RH WIND       PRES   REMARKS
ALAMOSA        FAIR      42  37  82 CALM      30.23R
LA VETA PASS   FAIR      43  28  56 S7        30.35S
SAGUACHE       FAIR      43  30  61 NW8       30.26R
$$

COZ035-036-038>040-301400-
...NORTHERN COLORADO FRONT RANGE...

CITY           SKY/WX    TMP DP  RH WIND       PRES   REMARKS
DENVER INTL AP FAIR      54  41  61 S12       30.05S
DMNS CITY PARK   N/A     55  38  51 SE6G14    30.05F
AURORA         MOSUNNY   53  42  66 S9        30.06F
FRONT RANGE AP SUNNY     52  41  66 S8        30.06
ERIE MUNI ARPT FAIR      48  43  84 CALM      30.05S
BOULDER MUN AP FAIR      52  39  62 CALM      30.04S
CENTENNIAL     FAIR      54  41  61 SE5       30.08S
BROOMFIELD     MOSUNNY   54  43  66 CALM      30.07S
FORT COLLINS   FAIR      50  45  81 N7        30.05S
LONGMONT       FAIR      56  44  63 NE3       30.06S
$$

COZ041-046-047-076>085-087-088-301400-
...PIKES PEAK/PALMER DIVIDE AND SOUTHERN FOOTHILLS...

CITY           SKY/WX    TMP DP  RH WIND       PRES   REMARKS
COLO. SPRINGS  FAIR      50  43  77 N6        30.13S
A. F. ACADEMY  FAIR      45  39  81 N6        30.13S
SCHRIEVER AFB  NOT AVBL
ELLICOTT       NOT AVBL
FALCON         FAIR      52  41  66 W5        30.15F
FORT CARSON    FAIR      49  41  74 NW2       30.10S
LIMON          FAIR      46  45  96 S5        30.10R
MONUMENT HILL  FAIR      50  37  62 SW8       30.16S
TRINIDAD       FAIR      55  45  68 W14       30.12R
$$

COZ042>045-048>051-090-091-301400-
...NORTHEAST COLORADO...

CITY           SKY/WX    TMP DP  RH WIND       PRES   REMARKS
GREELEY ARPT   FAIR      50  45  81 CALM      30.04F
AKRON          FAIR      52  46  80 S9        30.04S
BURLINGTON     FAIR      57  49  74 SW13      30.03S
WRAY           FAIR      54  50  87 W7        30.02R
STERLING       FAIR      52  50  93 SW6       30.00S
HOLYOKE        FAIR      59  52  77 W10       30.01S
FORT MORGAN    FAIR      52  47  84 CALM      30.04S
$$

COZ086-089-092>099-301400-
...SOUTHEAST COLORADO...

CITY           SKY/WX    TMP DP  RH WIND       PRES   REMARKS
PUEBLO         FAIR      52  45  77 NW9       30.08R
LA JUNTA       FAIR      54  47  77 SW10      30.05R
LAMAR          FAIR      51  48  89 W3        30.02R
SPRINGFIELD      N/A     52  50  93 S12       30.09R
$$




USA.gov is the U.S. government's official web portal to all federal, state and local government web resources and services.